• In Czech Republic
  • List of Countries
  • For 7 days
  • Water Temperature
  • Satellite Maps
  • Weather Map
  • Weather Widgets
  • user-avatar
    Login

    Hourly Weather San Luis Teolocholco

    Today, 19 November, Sunday

    Time Temperature Precipitation Wind Pressure Humidity
    00:00 +10°C° 0 mm 3 mps 573 mmHg 68%
    01:00 +9°C° 0 mm 3 mps 573 mmHg 61%
    02:00 +9°C° 0 mm 3 mps 573 mmHg 55%
    03:00 +8°C° 0 mm 3 mps 573 mmHg 55%
    04:00 +8°C° 0 mm 3 mps 573 mmHg 55%
    05:00 +6°C° 0 mm 4 mps 573 mmHg 57%
    06:00 +8°C° 0 mm 4 mps 574 mmHg 60%
    07:00 +10°C° 0 mm 4 mps 575 mmHg 62%
    08:00 +12°C° 0 mm 5 mps 576 mmHg 64%
    09:00 +13°C° 0 mm 5 mps 576 mmHg 62%
    10:00 +14°C° 0 mm 5 mps 577 mmHg 59%
    11:00 +16°C° 0 mm 5 mps 577 mmHg 57%
    12:00 +17°C° 0 mm 4 mps 577 mmHg 56%
    13:00 +17°C° 0 mm 4 mps 577 mmHg 56%
    14:00 +17°C° 0 mm 4 mps 576 mmHg 55%
    15:00 +14°C° 0 mm 4 mps 576 mmHg 60%
    16:00 +13°C° 0 mm 3 mps 575 mmHg 65%
    17:00 +12°C° 0 mm 3 mps 574 mmHg 69%
    18:00 +11°C° 0 mm 3 mps 574 mmHg 74%
    19:00 +10°C° 0 mm 3 mps 575 mmHg 79%
    20:00 +9°C° 0 mm 3 mps 575 mmHg 84%
    21:00 +9°C° 0 mm 2 mps 574 mmHg 85%
    22:00 +8°C° 0 mm 2 mps 574 mmHg 86%
    23:00 +8°C° 0 mm 2 mps 574 mmHg 87%

    Tomorrow, 20 November, Monday

    Time Temperature Precipitation Wind Pressure Humidity
    00:00 +8°C° 0 mm 2 mps 574 mmHg 87%
    01:00 +7°C° 0 mm 2 mps 573 mmHg 87%
    02:00 +7°C° 0 mm 2 mps 573 mmHg 87%
    03:00 +7°C° 0 mm 2 mps 573 mmHg 86%
    04:00 +7°C° 0 mm 2 mps 573 mmHg 85%
    05:00 +7°C° 0 mm 2 mps 572 mmHg 84%
    06:00 +10°C° 0 mm 1 mps 574 mmHg 75%
    07:00 +12°C° 0 mm 1 mps 575 mmHg 66%
    08:00 +14°C° 0 mm 1 mps 576 mmHg 57%
    09:00 +16°C° 0 mm 1 mps 577 mmHg 49%
    10:00 +18°C° 0 mm 1 mps 577 mmHg 42%
    11:00 +19°C° 0 mm 2 mps 578 mmHg 34%
    12:00 +20°C° 0 mm 2 mps 577 mmHg 34%
    13:00 +20°C° 0 mm 3 mps 577 mmHg 34%
    14:00 +21°C° 0 mm 3 mps 576 mmHg 33%
    15:00 +19°C° 0 mm 3 mps 575 mmHg 41%
    16:00 +17°C° 0 mm 2 mps 575 mmHg 49%
    17:00 +15°C° 0 mm 2 mps 574 mmHg 56%
    18:00 +14°C° 0 mm 2 mps 574 mmHg 61%
    19:00 +13°C° 0 mm 1 mps 574 mmHg 66%
    20:00 +12°C° 0 mm 1 mps 574 mmHg 71%
    21:00 +12°C° 0 mm 1 mps 574 mmHg 72%
    22:00 +12°C° 0 mm 1 mps 574 mmHg 73%
    23:00 +11°C° 0 mm 1 mps 573 mmHg 74%

    Day after tomorrow, 21 November, Tuesday

    Time Temperature Precipitation Wind Pressure Humidity
    00:00 +11°C° 0 mm 1 mps 573 mmHg 75%
    01:00 +11°C° 0 mm 1 mps 572 mmHg 75%
    02:00 +10°C° 0 mm 1 mps 572 mmHg 75%
    03:00 +10°C° 0 mm 1 mps 572 mmHg 76%
    04:00 +10°C° 0 mm 1 mps 572 mmHg 76%
    05:00 +9°C° 0 mm 1 mps 572 mmHg 76%
    06:00 +11°C° 0 mm 1 mps 573 mmHg 69%
    07:00 +13°C° 0 mm 1 mps 574 mmHg 62%
    08:00 +15°C° 0 mm 1 mps 575 mmHg 54%
    09:00 +17°C° 0 mm 2 mps 576 mmHg 49%
    10:00 +19°C° 0 mm 2 mps 576 mmHg 43%
    11:00 +20°C° 0 mm 3 mps 577 mmHg 37%
    12:00 +20°C° 0 mm 3 mps 576 mmHg 36%
    13:00 +21°C° 0 mm 3 mps 576 mmHg 36%
    14:00 +21°C° 0 mm 4 mps 575 mmHg 35%
    15:00 +19°C° 0 mm 3 mps 575 mmHg 42%
    16:00 +17°C° 0 mm 3 mps 574 mmHg 50%
    17:00 +16°C° 0 mm 2 mps 573 mmHg 57%
    18:00 +15°C° 0 mm 2 mps 573 mmHg 62%
    19:00 +14°C° 0 mm 1 mps 574 mmHg 67%
    20:00 +12°C° 0 mm 0 mps 574 mmHg 73%
    21:00 +12°C° 0 mm 1 mps 574 mmHg 73%
    22:00 +12°C° 0 mm 1 mps 573 mmHg 73%
    23:00 +12°C° 0 mm 1 mps 573 mmHg 73%

    22 November, Wednesday

    Time Temperature Precipitation Wind Pressure Humidity
    00:00 +11°C° 0 mm 1 mps 573 mmHg 74%
    01:00 +11°C° 0 mm 1 mps 573 mmHg 75%
    02:00 +11°C° 0 mm 1 mps 572 mmHg 76%
    03:00 +9°C° 0 mm 2 mps 572 mmHg 78%
    04:00 +9°C° 0 mm 2 mps 572 mmHg 81%
    05:00 +8°C° 0 mm 2 mps 573 mmHg 83%
    06:00 +10°C° 0 mm 2 mps 574 mmHg 70%
    07:00 +11°C° 0 mm 3 mps 575 mmHg 56%
    08:00 +13°C° 0 mm 3 mps 576 mmHg 42%
    09:00 +14°C° 0 mm 3 mps 577 mmHg 38%
    10:00 +17°C° 0 mm 3 mps 577 mmHg 35%
    11:00 +18°C° 0 mm 3 mps 578 mmHg 31%
    12:00 +18°C° 0 mm 3 mps 577 mmHg 32%
    13:00 +18°C° 0 mm 3 mps 577 mmHg 34%
    14:00 +19°C° 0 mm 3 mps 576 mmHg 36%
    15:00 +17°C° 0 mm 2 mps 576 mmHg 43%
    16:00 +15°C° 0 mm 2 mps 575 mmHg 51%
    17:00 +13°C° 0 mm 2 mps 574 mmHg 59%
    18:00 +12°C° 0 mm 2 mps 574 mmHg 65%
    19:00 +10°C° 0 mm 3 mps 574 mmHg 71%
    20:00 +9°C° 0 mm 3 mps 574 mmHg 77%
    21:00 +8°C° 0 mm 3 mps 574 mmHg 78%
    22:00 +8°C° 0 mm 3 mps 574 mmHg 79%
    23:00 +7°C° 0 mm 3 mps 574 mmHg 80%

    23 November, Thursday

    Time Temperature Precipitation Wind Pressure Humidity
    00:00 +7°C° 0 mm 3 mps 573 mmHg 79%
    01:00 +5°C° 0 mm 3 mps 573 mmHg 79%
    02:00 +5°C° 0 mm 3 mps 572 mmHg 78%
    03:00 +5°C° 0 mm 3 mps 572 mmHg 77%
    04:00 +4°C° 0 mm 3 mps 572 mmHg 76%
    05:00 +5°C° 0 mm 2 mps 572 mmHg 76%
    06:00 +7°C° 0 mm 2 mps 573 mmHg 68%
    07:00 +8°C° 0 mm 3 mps 574 mmHg 60%
    08:00 +10°C° 0 mm 3 mps 576 mmHg 52%
    09:00 +12°C° 0 mm 3 mps 576 mmHg 43%
    10:00 +15°C° 0 mm 2 mps 577 mmHg 35%
    11:00 +17°C° 0 mm 2 mps 577 mmHg 26%
    12:00 +18°C° 0 mm 2 mps 577 mmHg 25%
    13:00 +18°C° 0 mm 2 mps 576 mmHg 24%
    14:00 +19°C° 0 mm 2 mps 576 mmHg 23%
    15:00 +16°C° 0 mm 2 mps 575 mmHg 32%
    16:00 +14°C° 0 mm 2 mps 574 mmHg 40%
    17:00 +12°C° 0 mm 2 mps 574 mmHg 48%
    18:00 +10°C° 0 mm 2 mps 574 mmHg 55%
    19:00 +9°C° 0 mm 2 mps 574 mmHg 63%
    20:00 +8°C° 0 mm 3 mps 574 mmHg 71%
    21:00 +7°C° 0 mm 3 mps 573 mmHg 68%
    22:00 +7°C° 0 mm 3 mps 573 mmHg 66%
    23:00 +5°C° 0 mm 3 mps 573 mmHg 63%

    24 November, Friday

    Time Temperature Precipitation Wind Pressure Humidity
    00:00 +5°C° 0 mm 3 mps 572 mmHg 58%
    01:00 +4°C° 0 mm 3 mps 572 mmHg 53%
    02:00 +4°C° 0 mm 3 mps 571 mmHg 49%
    03:00 +4°C° 0 mm 3 mps 571 mmHg 46%
    04:00 +3°C° 0 mm 3 mps 571 mmHg 44%
    05:00 +3°C° 0 mm 3 mps 571 mmHg 42%
    06:00 +5°C° 0 mm 3 mps 573 mmHg 40%
    07:00 +8°C° 0 mm 3 mps 574 mmHg 37%
    08:00 +10°C° 0 mm 3 mps 575 mmHg 35%
    09:00 +12°C° 0 mm 3 mps 576 mmHg 33%
    10:00 +15°C° 0 mm 2 mps 576 mmHg 31%
    11:00 +17°C° 0 mm 2 mps 576 mmHg 29%
    12:00 +17°C° 0 mm 2 mps 576 mmHg 29%
    13:00 +18°C° 0 mm 2 mps 576 mmHg 29%
    14:00 +18°C° 0 mm 2 mps 575 mmHg 28%
    15:00 +16°C° 0 mm 2 mps 575 mmHg 35%
    16:00 +14°C° 0 mm 2 mps 574 mmHg 42%
    17:00 +13°C° 0 mm 2 mps 574 mmHg 48%
    18:00 +12°C° 0 mm 2 mps 574 mmHg 54%
    19:00 +10°C° 0 mm 2 mps 574 mmHg 59%
    20:00 +10°C° 0 mm 1 mps 574 mmHg 65%
    21:00 +9°C° 0 mm 1 mps 574 mmHg 67%
    22:00 +8°C° 0 mm 2 mps 573 mmHg 69%
    23:00 +7°C° 0 mm 2 mps 573 mmHg 71%
    Show more